Regional Weather Roundup
Issued by NWS

Home | Current Version | Previous Version | Text Only | Print | Product List | Glossary On
Versions: 1 2 3 4 5 6 7 8 9 10 11 12 13 14 15 16 17 18 19 20 21 22 23 24 25 26 27 28 29 30 31 32 33 34 35 36 37 38 39 40 41 42 43 44 45 46 47 48 49 50
000
ASUS46 KSTO 110815
RWRCA

NORTHERN AND CENTRAL CA REGIONAL WEATHER ROUNDUP
NATIONAL WEATHER SERVICE SACRAMENTO CA
1200 AM PST MON DEC 11 2017

NOTE: FAIR INDICATES FEW OR NO CLOUDS BELOW 12,000 FEET WITH NO
SIGNIFICANT WEATHER AND/OR OBSTRUCTIONS TO VISIBILITY.

CAZ001-003-110900-
NORTHWEST AREA

CITY           SKY/WX    TMP DP  RH WIND       PRES   REMARKS
CRESCENT CITY  CLEAR     46  34  62 E8        30.23S
UKIAH          CLEAR     34  30  85 CALM      30.29R
$$

CAZ006-505>513-110900-
BAY AREA

CITY           SKY/WX    TMP DP  RH WIND       PRES   REMARKS
SANTA ROSA     PTCLDY    37  36  96 NW5       30.25R WCI  33
SAN RAFAEL     N/A       48  MM  MM MISG
NAPA           CLEAR     38  34  85 CALM      30.26R
CONCORD        CLEAR     41  35  79 CALM      30.27S
OAKLAND CITY   N/A      MM  MM  MM MISG
OAKLAND        PTCLDY    43  37  79 CALM      30.25R
SAN FRAN CITY  N/A       53  MM  54 MISG
SAN FRAN ARPT  PTCLDY    52  35  52 S5        30.24S
LIVERMORE      CLEAR     38  33  82 CALM      30.26S
HAYWARD        CLEAR     47  32  56 E3        30.24S
REDWOOD CITY   N/A       41  MM  79 MISG
MOFFETT ARPT   PTCLDY    44  36  73 CALM      30.25S
SAN JOSE ARPT  PTCLDY    45  35  68 CALM      30.25R
$$
CAZ034-037-514>518-110900-
CENTRAL COAST

CITY           SKY/WX    TMP DP  RH WIND       PRES   REMARKS
WATSONVILLE    PTCLDY    48  32  53 N5        30.22S
SALINAS        PTCLDY    52  19  27 E3        30.21R
MONTEREY       PTCLDY    57  18  21 NE5       30.19S
SAN LUIS OBISP CLOUDY    47  24  40 CALM      30.18S
SANTA MARIA    CLOUDY    47  22  37 E7        30.18S HAZE
$$
CAZ015-016-110900-
NORTHERN SACRAMENTO VALLEY

CITY           SKY/WX    TMP DP  RH WIND       PRES   REMARKS
REDDING        CLEAR     36  30  79 CALM      30.28S
RED BLUFF      CLEAR     42  28  57 NW9       30.29R
OROVILLE       CLEAR     43  39  86 SE3       30.28S
$$
CAZ016>018-110900-
SOUTHERN SACRAMENTO VALLEY

CITY           SKY/WX    TMP DP  RH WIND       PRES   REMARKS
AUBURN         CLEAR     48  32  53 E8        30.28S
BEALE AFB      CLEAR     39  34  81 E6        30.26S
LINCOLN        FAIR      32  32 100 NE5       30.27S WCI  27
MARYSVILLE     CLEAR     37  34  89 E3        30.29R
SAC INTL ARPT  CLEAR     34  34 100 E3        30.28R
MATHER AIRPORT NOT AVBL
DOWNTOWN SAC   N/A       40  MM  MM MISG
SAC EXEC ARPT  CLEAR     38  38 100 CALM      30.28S
VACAVILLE      CLEAR     36  32  85 W3        30.29R
TRAVIS AFB     CLEAR     31  28  90 E3        30.26R
$$
CAZ019>021-110900-
SAN JOAQUIN VALLEY

CITY           SKY/WX    TMP DP  RH WIND       PRES   REMARKS
STOCKTON       PTCLDY    36  34  92 CALM      30.27S
MODESTO        PTCLDY    38  37  97 CALM      30.28R FOG
MERCED         PTCLDY    35  32  88 E5        30.28R WCI  31
LEMOORE        MOCLDY   N/A N/A N/A CALM      30.30R
FRESNO         PTCLDY    41  34  76 E3        30.30S HAZE
HANFORD        MOCLDY    35  34  96 CALM      30.30S FOG
PORTERVILLE    MOCLDY    41  34  76 CALM      30.29S HAZE
BAKERSFIELD    CLOUDY    47  34  60 NE7       30.26S HAZE
$$
CAZ011-012-071-110900-
NORTHERN MOUNTAINS

CITY           SKY/WX    TMP DP  RH WIND       PRES   REMARKS
YREKA          CLEAR     22  20  92 CALM      30.42S
MOUNT SHASTA   CLEAR     26  19  74 NE3       30.37S HAZE
ALTURAS        CLEAR     20  15  81 CALM      30.43R HAZE
$$
CAZ011-012-071-110900-
SIERRA NEVADA MTNS

CITY           SKY/WX    TMP DP  RH WIND       PRES   REMARKS
BLUE CANYON    CLEAR     53  -6   8 NE7       30.40S
TRUCKEE        CLEAR     14  10  85 CALM      30.50R
TAHOE VLY ARPT PTCLDY    20  15  81 CALM      30.47S
MAMMOTH LAKES  FAIR      20   1  44 N3        30.52S
$$




USA.gov is the U.S. government's official web portal to all federal, state and local government web resources and services.